Regional Weather Roundup
Issued by NWS

Home | Current Version | Previous Version | Text Only | Print | Product List | Glossary Off
Versions: 1 2 3 4 5 6 7 8 9 10 11 12 13 14 15 16 17 18 19 20 21 22 23 24 25 26 27 28 29 30 31 32 33 34 35 36 37 38 39 40 41 42 43 44 45 46 47 48 49 50

000
ASUS45 KCYS 030010
RWRWY

WYOMING REGIONAL WEATHER ROUNDUP
NATIONAL WEATHER SERVICE CHEYENNE WY
600 PM MDT SUN AUG 02 2015

NOTE:  "FAIR" INDICATES FEW OR NO CLOUDS BELOW 12,000 FEET
WITH NO SIGNIFICANT WEATHER AND/OR OBSTRUCTIONS TO VISIBILITY.

WYZ001-030100-
YELLOWSTONE NATIONAL PARK

CITY           SKY/WX    TMP DP  RH WIND       PRES   REMARKS
LK YELLOWSTONE   N/A     77  40  26 CALM      30.26F
6HR MIN TEMP:  65; 6HR MAX TEMP:  80;

W YELLOWSTONE  NOT AVBL

$$
WYZ002>013-054>058-071-098>099-030100-
NORTHERN WYOMING

CITY           SKY/WX    TMP DP  RH WIND       PRES   REMARKS
JACKSON        SUNNY     84  30  14 SW5       30.12F
CODY           FAIR      81  41  24 N14       30.07S
GREYBULL       FAIR      96  30   9 N17       29.92F HX  90
6HR MIN TEMP:  86; 6HR MAX TEMP:  99;

WORLAND        FAIR      95  30  10 NE7       29.95S
6HR MIN TEMP:  87; 6HR MAX TEMP:  97;

SHERIDAN       FAIR      90  41  18 NW14      30.00S
6HR MIN TEMP:  86; 6HR MAX TEMP:  91;

BUFFALO        FAIR      86  40  19 NW15G21   30.08S
6HR MIN TEMP:  86; 6HR MAX TEMP:  87;

GILLETTE       FAIR      89  46  22 N15       30.01R
6HR MIN TEMP:  89; 6HR MAX TEMP:  92;

HULETT         FAIR      82  46  28 E13       30.03S
NEWCASTLE      FAIR      88  46  23 MISG      29.99R

$$
WYZ014>020-022>026-101>103-030100-
CENTRAL WYOMING

CITY           SKY/WX    TMP DP  RH WIND       PRES   REMARKS
BIG PINEY      FAIR      86  26  11 W7        30.15F
6HR MIN TEMP:  81; 6HR MAX TEMP:  88;

PINEDALE       FAIR      84  27  12 NE5       30.16S
DUBOIS         FAIR      82  23  11 SE12      30.17F
LANDER         FAIR      91  28  10 VRB6      30.04S
6HR MIN TEMP:  86; 6HR MAX TEMP:  93;

RIVERTON       FAIR      90  22   8 NE9       30.05F
6HR MIN TEMP:  84; 6HR MAX TEMP:  93;

CASPER         FAIR      94  17   6 W6        30.02F
6HR MIN TEMP:  88; 6HR MAX TEMP:  95;

DOUGLAS        FAIR      89  42  19 SE14      30.01S
6HR MIN TEMP:  88; 6HR MAX TEMP:  97;


$$
WYZ021-027>030-104>119-030100-
SOUTHERN WYOMING

CITY           SKY/WX    TMP DP  RH WIND       PRES   REMARKS
EVANSTON       FAIR      78  39  24 SW21G31   30.16S
6HR MIN TEMP:  78; 6HR MAX TEMP:  89;

KEMMERER       FAIR     N/A N/A N/A E6        30.17S
FORT BRIDGER   CLEAR     86  25  10 CALM      30.16F
ROCK SPRINGS   FAIR      85  26  11 SE8       30.11F
6HR MIN TEMP:  78; 6HR MAX TEMP:  88;

DIXON          FAIR      83  42  23 W8        30.12F
RAWLINS        FAIR      86  24  10 CALM      30.13F
6HR MIN TEMP:  82; 6HR MAX TEMP:  91;

SARATOGA       FAIR      79  37  22 SE18G30   30.17R
LARAMIE        PTSUNNY   78  40  25 SE10      30.18S
6HR MIN TEMP:  78; 6HR MAX TEMP:  87;

CHEYENNE       FAIR      84  43  23 SE8       30.11F
6HR MIN TEMP:  78; 6HR MAX TEMP:  88; 6HR PCP: TRACE;

TORRINGTON     FAIR      93  42  17 E9        29.96S
6HR MIN TEMP:  85; 6HR MAX TEMP:  95;

PINE BLUFFS    FAIR      86  45  23 SE5       30.05F

$$


USA.gov is the U.S. government's official web portal to all federal, state and local government web resources and services.